[[{"header":{"parameterUnit":"m.s-1","parameterCategory":1,"la1":30.2991,"la2":30.254,"lo1":-89.0895,"lo2":-89.0444,"dy":0.0017,"dx":0.0017,"nx":28,"ny":28,"refTime":"2025-12-04T09:00:00:Z","depth":0,"parameterNumber":2,"parameterNumberName":"U-component_of_WINDS"},"data":[0,0,0,0,0,0,0,0,0,0,0,0,0,0,0,0,0,0,0,0,0,0,0,0,0,0,0,0,0,0,0,0,0,0,0,0,0,0,0,0,0,0,0,0,0,0,0,0,0,0,0,0,0,0,0,0,0,0,0.0672,0.0671,0,0.057,0.0569,0.0568,0.0532,0.0532,0.0533,0.0533,0.0427,0.0424,0.0421,0,0,0,0,0,0,0,0,0,0,0,0,0,0.0837,0.0834,0.0673,0.0671,0.067,0.0571,0.0569,0.0568,0.0532,0.0532,0.0533,0.0533,0.0428,0.0424,0.0421,0,0,0,0,0,0,0,0,0,0,0,0,0,0.0753,0.0833,0.0673,0.064,0.0636,0.0571,0.0569,0.0567,0.0532,0.0532,0.0533,0.0533,0.0429,0.0425,0.042,0.0379,0,0,0.0406,0.0403,0,0,0,0,0,0,0,0,0.0758,0.0747,0.0646,0.0642,0.0638,0.0564,0.0588,0.0504,0.0532,0.0571,0.0533,0.0534,0.0472,0.0464,0.0444,0.0374,0.037,0.0405,0.0402,0.04,0.0399,0,0,0,0,0,0,0,0.0764,0.0751,0.0632,0.0645,0.064,0.0631,0.0619,0.0572,0.052,0.0568,0.0565,0.0554,0.047,0.0448,0.0441,0.0368,0.0405,0.0401,0.0398,0.0396,0.0262,0.0261,0,0,0,0,0,0,0.0775,0.0756,0.0635,0.0629,0.0701,0.0627,0.0615,0.0587,0.052,0.0511,0.0553,0.0552,0.0456,0.0446,0.0437,0.0385,0.04,0.0396,0.0393,0.0262,0.0261,0.0261,0,0,0,0,0,0,0.0779,0.0765,0.0639,0.0692,0.0675,0.0624,0.0594,0.0585,0.0563,0.0509,0.05,0.054,0.0456,0.0444,0.0394,0.0381,0.0394,0.0389,0.0263,0.0262,0.0261,0.0281,0,0,0,0,0,0,0.0784,0.0766,0.075,0.0692,0.0673,0.0598,0.0593,0.0583,0.0555,0.0553,0.0495,0.0485,0.0456,0.0402,0.039,0.0375,0.0386,0.0264,0.0263,0.0261,0.0281,0.0281,0.0281,0,0,0,0,0,0.079,0.0759,0.0749,0.0735,0.0651,0.0598,0.0587,0.0553,0.0554,0.0538,0.0503,0.0487,0.0385,0.0397,0.0383,0.0366,0.0265,0.0263,0.0262,0.0282,0.0281,0.0281,0,0,0,0,0,0,0.0816,0.0751,0.0739,0.0689,0.0649,0.0592,0.0569,0.0554,0.0512,0.0512,0.0472,0.0459,0.0413,0.0385,0.0399,0.0324,0.0324,0.0319,0.0344,0.0343,0.0342,0.035,0.0382,0,0,0,0,0,0.0816,0.0778,0.0723,0.0684,0.0665,0.0621,0.0596,0.0574,0.0531,0.0514,0.0476,0.0435,0.0393,0.0367,0.0325,0.0278,0.0265,0.026,0.0259,0.0259,0.0256,0.0229,0.0226,0.0255,0.0255,0.0255,0,0,0.0816,0.0775,0.0754,0.0689,0.0655,0.0617,0.0607,0.0567,0.0538,0.0508,0.0459,0.043,0.0381,0.0333,0.031,0.0308,0.0245,0.0257,0.0258,0.0254,0.0227,0.0224,0.0222,0.0254,0.0254,0.0255,0,0,0.0795,0.0761,0.0725,0.0692,0.0642,0.0614,0.0605,0.055,0.053,0.0481,0.0458,0.0423,0.0353,0.0319,0.0293,0.0262,0.0246,0.025,0.0247,0.0222,0.022,0.0217,0.0207,0.0203,0.0247,0.0247,0.0247,0,0.0801,0.0742,0.0709,0.067,0.0642,0.0615,0.0578,0.0548,0.0487,0.0469,0.0468,0.038,0.0345,0.0289,0.0282,0.0261,0.0251,0.0256,0.0223,0.022,0.0218,0.0207,0.0203,0.0248,0.0248,0.0248,0.0248,0,0.0752,0.0712,0.0689,0.0632,0.0601,0.0564,0.0525,0.0499,0.048,0.0452,0.0402,0.036,0.0311,0.0296,0.0277,0.0237,0.0238,0.0231,0.0229,0.0216,0.0205,0.0201,0.0249,0.0249,0.0248,0.0248,0,0,0.0743,0.0669,0.0661,0.0636,0.058,0.0548,0.051,0.0462,0.044,0.04,0.0367,0.0309,0.0303,0.0273,0.025,0.0228,0.0207,0.0223,0.0222,0.0222,0.0162,0.0167,0.0163,0.0197,0.0196,0.0195,0.0166,0,0.0715,0.0646,0.0615,0.056,0.0523,0.0498,0.0465,0.0427,0.04,0.0365,0.0335,0.0294,0.0288,0.0271,0.0248,0.0215,0.0194,0.0216,0.0166,0.0164,0.0178,0.0157,0.0162,0.0136,0.0161,0.0161,0.016,0,0.0672,0.0633,0.0574,0.0524,0.0507,0.0478,0.0432,0.0399,0.0356,0.0338,0.0306,0.0285,0.0245,0.0247,0.0191,0.0207,0.0185,0.0166,0.0164,0.0157,0.0161,0.015,0.0127,0.0123,0.0153,0.0154,0.0154,0,0.0672,0.0604,0.056,0.0539,0.0479,0.046,0.0434,0.0392,0.0365,0.0326,0.0308,0.0264,0.024,0.0207,0.0174,0.0179,0.0122,0.0122,0.0106,0.0106,0.0093,0.0094,0.0067,0.008,0.008,0.0081,0.0081,0,0.0643,0.0608,0.0559,0.0532,0.0493,0.0459,0.0421,0.0393,0.0356,0.0324,0.0299,0.0269,0.0229,0.0194,0.0168,0.0126,0.0115,0.01,0.0093,0.0101,0.0103,0.0086,0.0086,0.0079,0.008,0.008,0.008,0,0.0635,0.0601,0.0552,0.05,0.0487,0.046,0.0415,0.0388,0.0361,0.032,0.0309,0.0266,0.0224,0.0189,0.0133,0.0116,0.0072,0.0064,0.0086,0.0083,0.0069,0.007,0.0028,0.0021,0.004,0.004,0.004,0,0.0619,0.0591,0.0537,0.0514,0.0489,0.0452,0.0425,0.0392,0.0365,0.0315,0.0295,0.0251,0.0214,0.0148,0.0111,0.0069,0.006,0.0048,0.0053,0.0063,0.006,0.0062,0.0059,0.0048,0.0048,0.0048,0.0047,0,0.0593,0.0578,0.0541,0.0499,0.0468,0.0432,0.0396,0.0379,0.0339,0.031,0.0267,0.0239,0.0183,0.014,0.0094,0.0067,0.0051,0.0047,0.0041,0.0048,0.0062,0.0054,0.0085,0.0047,0.0047,0.0047,0.0047,0.0047,0.058,0.0555,0.0514,0.0473,0.0443,0.0411,0.0383,0.0353,0.0317,0.0269,0.0252,0.0208,0.0167,0.0104,0.0077,0.0043,0.0041,0.0032,0.003,0.0028,0.0029,0.0069,0.0034,0.0034,0.0034,0.0034,0.0034,0,0.0553,0.0526,0.0489,0.044,0.0409,0.0398,0.0358,0.0332,0.0294,0.0258,0.0223,0.0174,0.0133,0.0094,0.0051,0.0031,0.0022,0.002,0.0021,0.0015,0.0033,0.0043,0.0028,0.0028,0.0028,0.0028,0.0028,0.0028,0.0535,0.0493,0.0473,0.0416,0.0389,0.0346,0.0324,0.0294,0.0265,0.0212,0.0178,0.0153,0.0116,0.0071,0.0033,0.0022,0.0007,0.0008,-0.0004,0.0013,0.0014,0.0015,0.0024,0.0005,0.0005,-0.002,-0.002,-0.002]},{"header":{"parameterUnit":"m.s-1","parameterCategory":1,"la1":30.2991,"la2":30.254,"lo1":-89.0895,"lo2":-89.0444,"dy":0.0017,"dx":0.0017,"nx":28,"ny":28,"refTime":"2025-12-04T09:00:00:Z","depth":0,"parameterNumber":3,"parameterNumberName":"V-component_of_WINDS"},"data":[0,0,0,0,0,0,0,0,0,0,0,0,0,0,0,0,0,0,0,0,0,0,0,0,0,0,0,0,0,0,0,0,0,0,0,0,0,0,0,0,0,0,0,0,0,0,0,0,0,0,0,0,0,0,0,0,0,0,-2.6898,-2.6899,0,-2.6987,-2.6988,-2.6989,-2.6982,-2.6981,-2.698,-2.6978,-2.707,-2.7073,-2.7077,0,0,0,0,0,0,0,0,0,0,0,0,0,-2.6721,-2.6725,-2.6898,-2.6899,-2.69,-2.6987,-2.6988,-2.699,-2.6983,-2.6981,-2.6979,-2.6978,-2.7069,-2.7073,-2.7077,0,0,0,0,0,0,0,0,0,0,0,0,0,-2.6803,-2.6726,-2.6897,-2.6907,-2.6909,-2.6987,-2.6988,-2.699,-2.6983,-2.6981,-2.6979,-2.6977,-2.7067,-2.7072,-2.7078,-2.7152,0,0,-2.7095,-2.7097,0,0,0,0,0,0,0,0,-2.6799,-2.681,-2.6904,-2.6906,-2.6909,-2.6972,-2.696,-2.7044,-2.6983,-2.6955,-2.6978,-2.6976,-2.7039,-2.7046,-2.7068,-2.7157,-2.7161,-2.7095,-2.7099,-2.7101,-2.7103,0,0,0,0,0,0,0,-2.6793,-2.6806,-2.6933,-2.6906,-2.6908,-2.6907,-2.6916,-2.6976,-2.7007,-2.6957,-2.6957,-2.6967,-2.7039,-2.7062,-2.707,-2.7162,-2.7095,-2.71,-2.7103,-2.7106,-2.7319,-2.7321,0,0,0,0,0,0,-2.6785,-2.6801,-2.693,-2.6936,-2.6847,-2.6912,-2.6922,-2.6953,-2.7006,-2.7012,-2.6969,-2.6967,-2.7054,-2.7063,-2.7073,-2.7165,-2.7101,-2.7106,-2.7109,-2.7317,-2.7319,-2.7322,0,0,0,0,0,0,-2.6781,-2.6797,-2.6927,-2.6868,-2.6885,-2.6917,-2.6952,-2.6956,-2.6979,-2.7015,-2.7021,-2.6987,-2.7053,-2.7065,-2.7133,-2.7168,-2.7109,-2.7114,-2.7314,-2.7318,-2.7321,-2.735,0,0,0,0,0,0,-2.6776,-2.6795,-2.6824,-2.6869,-2.6888,-2.6985,-2.6954,-2.6959,-2.6989,-2.6987,-2.7033,-2.7039,-2.7052,-2.7125,-2.7139,-2.7175,-2.7118,-2.7311,-2.7315,-2.732,-2.7346,-2.7354,-2.7361,0,0,0,0,0,-2.677,-2.6828,-2.6825,-2.6841,-2.6924,-2.6987,-2.6998,-2.7012,-2.6991,-2.7021,-2.7044,-2.7038,-2.7162,-2.7132,-2.7147,-2.7186,-2.7309,-2.7314,-2.7319,-2.7343,-2.7352,-2.7361,0,0,0,0,0,0,-2.6785,-2.6834,-2.6831,-2.6905,-2.6942,-2.6986,-2.7023,-2.7021,-2.7065,-2.7061,-2.7076,-2.7086,-2.7155,-2.7177,-2.7143,-2.7262,-2.7233,-2.7241,-2.7245,-2.7255,-2.7262,-2.7256,-2.7123,0,0,0,0,0,-2.6797,-2.6844,-2.6884,-2.6946,-2.6964,-2.6991,-2.7019,-2.7026,-2.7065,-2.708,-2.7109,-2.7147,-2.7195,-2.7226,-2.7271,-2.7349,-2.736,-2.7383,-2.739,-2.7396,-2.7404,-2.7448,-2.746,-2.7339,-2.7339,-2.7339,0,0,-2.6822,-2.6854,-2.6883,-2.6949,-2.6979,-2.7028,-2.7004,-2.7056,-2.7093,-2.7088,-2.7155,-2.7177,-2.7221,-2.7294,-2.7328,-2.7314,-2.7439,-2.7403,-2.7407,-2.7412,-2.7455,-2.7466,-2.7476,-2.7343,-2.7342,-2.7342,0,0,-2.6893,-2.6922,-2.6977,-2.7008,-2.7053,-2.707,-2.7084,-2.7128,-2.7143,-2.721,-2.7208,-2.7252,-2.7334,-2.7365,-2.7392,-2.7477,-2.7474,-2.7492,-2.7531,-2.7574,-2.7584,-2.7592,-2.7624,-2.7635,-2.7499,-2.7499,-2.7499,0,-2.6918,-2.6992,-2.7006,-2.706,-2.7089,-2.7088,-2.7145,-2.7174,-2.7231,-2.7252,-2.7236,-2.734,-2.7369,-2.7451,-2.7472,-2.7493,-2.751,-2.7487,-2.7581,-2.759,-2.7598,-2.7629,-2.7641,-2.7501,-2.7501,-2.75,-2.75,0,-2.7022,-2.7074,-2.7113,-2.717,-2.7204,-2.7259,-2.7282,-2.7315,-2.732,-2.7339,-2.7408,-2.7443,-2.7497,-2.7517,-2.7521,-2.76,-2.7591,-2.7578,-2.7549,-2.7611,-2.7641,-2.7652,-2.7504,-2.7503,-2.7502,-2.7502,0,0,-2.7105,-2.717,-2.7184,-2.7211,-2.7261,-2.7302,-2.7357,-2.741,-2.7439,-2.7479,-2.7527,-2.7597,-2.7586,-2.7616,-2.7625,-2.7663,-2.773,-2.7645,-2.7647,-2.7661,-2.7821,-2.7832,-2.7845,-2.7728,-2.773,-2.7732,-2.7818,0,-2.7182,-2.7281,-2.7296,-2.7383,-2.7431,-2.7431,-2.748,-2.7517,-2.7536,-2.7581,-2.7602,-2.7653,-2.7633,-2.7652,-2.7689,-2.7714,-2.7763,-2.7708,-2.7773,-2.7776,-2.7764,-2.786,-2.7871,-2.7951,-2.783,-2.7832,-2.7833,0,-2.7286,-2.733,-2.7422,-2.7468,-2.7489,-2.7533,-2.7584,-2.7626,-2.7668,-2.768,-2.7715,-2.7719,-2.7777,-2.7746,-2.7827,-2.779,-2.7817,-2.7834,-2.7837,-2.7845,-2.7809,-2.7872,-2.7977,-2.7989,-2.7851,-2.7849,-2.7848,0,-2.7339,-2.7422,-2.7488,-2.7511,-2.7565,-2.7596,-2.762,-2.7661,-2.7692,-2.7737,-2.7758,-2.7808,-2.7836,-2.7875,-2.7894,-2.7869,-2.7975,-2.7944,-2.7987,-2.7987,-2.8011,-2.8009,-2.8123,-2.8026,-2.8026,-2.8025,-2.8025,0,-2.7425,-2.7482,-2.7513,-2.7554,-2.7619,-2.7635,-2.7698,-2.7721,-2.7757,-2.7804,-2.7806,-2.7849,-2.787,-2.7917,-2.7931,-2.7998,-2.801,-2.8022,-2.8025,-2.8022,-2.8021,-2.8042,-2.8037,-2.8029,-2.8028,-2.8027,-2.8027,0,-2.7496,-2.7519,-2.7592,-2.7638,-2.7651,-2.7696,-2.7736,-2.7777,-2.7796,-2.7855,-2.787,-2.7901,-2.7956,-2.7978,-2.8045,-2.8055,-2.8132,-2.813,-2.8118,-2.812,-2.8162,-2.8159,-2.8294,-2.8314,-2.8203,-2.8204,-2.8204,0,-2.755,-2.7594,-2.7645,-2.7677,-2.7702,-2.7752,-2.7785,-2.7803,-2.7838,-2.789,-2.7924,-2.798,-2.8025,-2.8113,-2.8142,-2.8194,-2.8195,-2.8239,-2.8203,-2.8199,-2.8198,-2.8195,-2.8201,-2.8246,-2.8247,-2.8248,-2.8248,0,-2.7644,-2.7653,-2.7701,-2.7753,-2.7792,-2.7834,-2.7874,-2.79,-2.7924,-2.7963,-2.802,-2.8055,-2.8125,-2.818,-2.8234,-2.8259,-2.8259,-2.826,-2.8273,-2.8271,-2.8263,-2.827,-2.8138,-2.8257,-2.8256,-2.8255,-2.8255,-2.8254,-2.7709,-2.7749,-2.7792,-2.7845,-2.7878,-2.7916,-2.7957,-2.7983,-2.8031,-2.8089,-2.8097,-2.8159,-2.8201,-2.8273,-2.8301,-2.835,-2.8339,-2.8357,-2.8362,-2.8367,-2.8371,-2.8254,-2.8359,-2.8359,-2.8359,-2.8359,-2.8359,0,-2.7805,-2.7833,-2.7882,-2.7939,-2.7981,-2.7977,-2.8022,-2.8058,-2.8113,-2.8152,-2.8197,-2.8264,-2.8318,-2.8352,-2.8407,-2.8439,-2.8441,-2.8453,-2.8452,-2.8458,-2.8377,-2.8361,-2.8452,-2.8451,-2.8451,-2.8451,-2.8451,-2.8451,-2.7859,-2.7928,-2.7943,-2.8028,-2.8056,-2.8116,-2.8143,-2.8179,-2.8211,-2.8285,-2.8331,-2.8352,-2.839,-2.8448,-2.8498,-2.8507,-2.8528,-2.8541,-2.8549,-2.8473,-2.8463,-2.8454,-2.844,-2.8545,-2.8545,-2.8627,-2.8628,-2.8628]}]]